Date_and_time,latitude,longitude,wind_speed,RelWindDirFrom,WindDirFrom,air_pressure,air_temperature,relative_humidity,Temp,platform_speed_wrt_ground,air_pressure_at_mean_sea_level,platform_orientation
2019-10-04 23:40,50.6304383333333,-96.9807616666667,16.4,20.3,152,994.13,8.3,75,9.65,0.0,1021.35,308.7
2019-10-04 23:50,50.6304383333333,-96.9807616666667,16.5,21.6,150,994.03,8.2,75,9.64,0.0,1021.24,308.7
2019-10-05 00:00,50.6304383333333,-96.98076,17.9,22.5,148,993.89,8.3,74,9.63,0.0,1021.10,274.5
2019-10-05 00:10,50.6304383333333,-96.98076,18.0,23.5,143,993.84,8.3,74,9.63,0.0,1021.04,274.5
2019-10-05 00:20,50.6304383333333,-96.98076,18.2,22.7,143,993.74,8.2,73,9.60,0.0,1020.94,274.5
2019-10-05 00:30,50.6304383333333,-96.98076,17.7,22.2,144,993.68,8.2,73,9.58,0.0,1020.87,274.5
2019-10-05 00:40,50.6304383333333,-96.98076,17.8,23.8,142,993.60,8.2,73,9.58,0.0,1020.79,274.5
2019-10-05 00:50,50.6304383333333,-96.98076,19.8,23.8,140,993.42,8.2,72,9.58,0.0,1020.61,274.5
2019-10-05 01:00,50.6304383333333,-96.98076,20.3,25.0,138,993.29,8.2,73,9.58,0.0,1020.47,12.6
2019-10-05 01:10,50.6304383333333,-96.98076,20.4,25.2,139,993.21,8.2,73,9.57,0.0,1020.40,12.6
2019-10-05 01:20,50.6304383333333,-96.98076,20.7,25.5,138,993.16,8.2,73,9.55,0.0,1020.34,12.6
2019-10-05 01:30,50.6304383333333,-96.98076,20.4,25.0,137,993.09,8.2,74,9.55,0.0,1020.27,12.6
2019-10-05 01:40,50.6304383333333,-96.98076,20.2,24.7,141,992.97,8.2,74,9.57,0.0,1020.15,12.6
2019-10-05 01:50,50.6304383333333,-96.9807616666667,19.4,26.1,142,992.76,8.2,75,9.56,0.0,1019.94,12.6
2019-10-05 02:00,50.6304383333333,-96.9807616666667,20.3,23.7,144,992.60,8.1,74,9.56,0.0,1019.77,12.6
2019-10-05 02:10,50.6304383333333,-96.9807616666667,19.7,25.3,149,992.50,8.1,74,9.53,0.0,1019.67,12.6
2019-10-05 02:20,50.6304383333333,-96.9807616666667,17.4,22.5,148,992.44,8.1,75,9.52,0.0,1019.61,12.6
2019-10-05 02:30,50.6304383333333,-96.9807616666667,19.8,25.4,142,992.34,8.1,74,9.51,0.0,1019.50,12.6
2019-10-05 02:40,50.6304383333333,-96.9807616666667,20.4,25.4,140,992.15,8.1,73,9.50,0.0,1019.31,12.6
2019-10-05 02:50,50.63044,-96.9807616666667,20.3,25.2,140,991.93,8.1,74,9.48,0.0,1019.08,12.6
2019-10-05 03:00,50.6304383333333,-96.9807616666667,22.3,28.5,138,991.71,8.2,73,9.47,0.0,1018.86,0.0
2019-10-05 03:10,50.63044,-96.9807616666667,21.2,27.0,139,991.80,8.1,73,9.46,0.0,1018.96,0.0
2019-10-05 03:20,50.63044,-96.9807616666667,20.2,26.0,137,991.84,8.1,74,9.46,0.0,1018.99,0.0
2019-10-05 03:30,50.63044,-96.9807616666667,19.9,27.0,136,991.82,8.1,74,9.45,0.0,1018.98,0.0
2019-10-05 03:40,50.63044,-96.9807616666667,19.5,24.7,141,991.82,8.0,74,9.45,0.0,1018.98,0.0
2019-10-05 03:50,50.63044,-96.9807616666667,19.0,22.9,139,991.87,8.0,74,9.45,0.0,1019.03,0.0
2019-10-05 04:00,50.63044,-96.9807616666667,18.4,22.8,141,991.80,7.9,75,9.45,0.0,1018.97,0.0
2019-10-05 04:10,50.6303983333333,-96.9807483333333,17.4,21.7,142,991.85,7.9,74,9.43,0.0,1019.02,0.0
2019-10-05 04:20,50.630445,-96.9807583333333,16.3,21.3,145,991.90,7.9,74,9.41,0.0,1019.07,0.0
2019-10-05 04:30,50.6304483333333,-96.980765,15.6,21.1,147,991.88,7.9,74,9.41,0.0,1019.05,0.0
2019-10-05 04:40,50.6304466666667,-96.9807633333333,15.3,20.1,150,991.86,7.9,75,9.42,0.0,1019.03,0.0
2019-10-05 04:50,50.6304433333333,-96.9807616666667,14.9,20.3,148,991.79,7.8,75,9.41,0.0,1018.96,0.0
2019-10-05 05:00,50.6304416666667,-96.9807633333333,15.6,19.9,144,991.72,7.7,75,9.40,0.0,1018.89,270.0
2019-10-05 05:10,50.6304416666667,-96.9807616666667,15.9,19.8,144,991.53,7.7,74,9.41,0.0,1018.70,270.0
2019-10-05 05:20,50.6304416666667,-96.9807633333333,16.9,21.9,142,991.22,7.6,75,9.41,0.0,1018.38,270.0
2019-10-05 05:30,50.6304416666667,-96.9807616666667,17.2,21.1,140,990.93,7.6,75,9.42,0.0,1018.09,270.0
2019-10-05 05:40,50.6304433333333,-96.9807616666667,17.0,21.2,139,990.83,7.6,76,9.41,0.0,1017.99,270.0
2019-10-05 05:50,50.6304416666667,-96.9807633333333,17.0,21.8,136,990.63,7.7,77,9.40,0.0,1017.79,270.0
2019-10-05 06:00,50.6304316666667,-96.9807583333333,17.8,22.5,139,990.51,7.6,76,9.39,0.0,1017.66,360.0
2019-10-05 06:10,50.6304333333333,-96.9807583333333,18.3,22.7,138,990.37,7.7,76,9.38,0.0,1017.52,360.0
2019-10-05 06:20,50.6304366666667,-96.9807633333333,18.3,21.9,140,990.27,7.6,76,9.37,0.0,1017.42,360.0
2019-10-05 06:30,50.6304383333333,-96.980765,18.1,23.8,140,990.14,7.7,77,9.37,0.0,1017.29,360.0
2019-10-05 06:40,50.630435,-96.98076,18.4,23.4,139,990.02,7.6,77,9.38,0.0,1017.17,360.0
2019-10-05 06:50,50.6304383333333,-96.9807616666667,18.5,22.9,139,989.91,7.6,77,9.37,0.0,1017.06,360.0
2019-10-05 07:00,50.63044,-96.98076,17.3,20.9,137,989.69,7.6,78,9.34,0.0,1016.84,0.0
2019-10-05 07:10,50.6304383333333,-96.9807616666667,17.7,22.7,129,989.36,7.7,79,9.34,0.0,1016.49,0.0
2019-10-05 07:20,50.6304383333333,-96.98076,16.1,21.8,130,989.10,7.6,79,9.34,0.0,1016.23,0.0
2019-10-05 07:30,50.6304383333333,-96.9807583333333,14.7,19.5,125,988.89,7.8,81,9.33,0.0,1016.01,0.0
2019-10-05 07:40,50.6304383333333,-96.9807583333333,16.6,21.2,125,988.64,7.8,81,9.32,0.0,1015.74,0.0
2019-10-05 07:50,50.6304383333333,-96.9807583333333,15.5,21.1,126,988.25,7.7,81,9.30,0.0,1015.35,0.0
2019-10-05 08:00,50.6304383333333,-96.9807566666667,16.8,21.9,126,988.24,7.7,82,9.30,0.0,1015.35,90.0
2019-10-05 08:10,50.6304383333333,-96.9807566666667,17.7,21.6,128,987.97,7.5,80,9.30,0.0,1015.07,90.0
2019-10-05 08:20,50.6304383333333,-96.9807566666667,16.5,20.4,127,987.67,7.6,81,9.28,0.0,1014.76,90.0
2019-10-05 08:30,50.6304383333333,-96.9807566666667,16.0,21.1,130,987.72,7.5,81,9.27,0.0,1014.82,90.0
2019-10-05 08:40,50.6304383333333,-96.9807566666667,17.7,22.5,130,987.33,7.4,81,9.27,0.0,1014.43,90.0
2019-10-05 08:50,50.6304366666667,-96.980755,17.2,22.7,128,986.97,7.4,81,9.27,0.0,1014.05,90.0
2019-10-05 09:00,50.6304366666667,-96.980755,18.3,23.6,125,986.68,7.5,81,9.26,0.0,1013.74,38.0
2019-10-05 09:10,50.6304366666667,-96.980755,17.8,23.4,130,986.64,7.3,82,9.24,0.0,1013.71,38.0
2019-10-05 09:20,50.6304366666667,-96.980755,18.9,23.8,132,986.54,7.3,81,9.23,0.0,1013.61,38.0
2019-10-05 09:30,50.6304366666667,-96.980755,18.8,24.2,131,986.44,7.2,82,9.23,0.0,1013.51,38.0
2019-10-05 09:40,50.6304366666667,-96.9807566666667,17.3,22.6,131,986.38,7.2,83,9.21,0.0,1013.45,38.0
2019-10-05 09:50,50.6304366666667,-96.980755,18.5,24.1,129,986.31,7.2,83,9.21,0.0,1013.39,38.0
2019-10-05 10:00,50.6304366666667,-96.980755,18.8,23.2,132,986.23,7.2,83,9.21,0.0,1013.32,360.0
2019-10-05 10:10,50.6304366666667,-96.980755,19.0,23.4,130,986.02,7.2,83,9.20,0.0,1013.09,360.0
2019-10-05 10:20,50.6304383333333,-96.980755,18.8,22.3,131,985.90,7.1,83,9.20,0.0,1012.98,360.0
2019-10-05 10:30,50.6304366666667,-96.9807566666667,18.0,22.0,134,985.72,7.0,83,9.21,0.0,1012.80,360.0
2019-10-05 10:40,50.6304383333333,-96.9807566666667,18.3,22.9,133,985.68,7.1,83,9.20,0.0,1012.75,360.0
2019-10-05 10:50,50.6304383333333,-96.9807566666667,18.9,23.1,139,985.50,6.9,83,9.19,0.0,1012.57,360.0
2019-10-05 11:00,50.6304383333333,-96.9807566666667,17.6,21.3,137,985.24,6.9,84,9.19,0.0,1012.31,0.0
2019-10-05 11:10,50.6304266666667,-96.9807333333333,16.7,20.9,138,984.99,6.9,83,9.18,0.0,1012.06,0.0
2019-10-05 11:20,50.6304266666667,-96.9807416666667,16.1,19.2,139,984.89,6.9,83,9.18,0.0,1011.96,0.0
2019-10-05 11:30,50.6304366666667,-96.98077,16.1,19.7,136,984.66,6.9,86,9.18,0.0,1011.73,0.0
2019-10-05 11:40,50.6304316666667,-96.9807616666667,16.4,19.4,136,984.43,6.6,90,9.18,0.0,1011.50,0.0
2019-10-05 11:50,50.630435,-96.9807616666667,14.8,18.2,134,984.30,6.7,90,9.17,0.0,1011.37,0.0
2019-10-05 12:00,50.630435,-96.98076,15.1,18.9,137,984.13,6.6,91,9.17,0.0,1011.20,0.0
2019-10-05 12:10,50.630435,-96.98076,14.3,17.6,135,983.92,6.6,92,9.17,0.0,1010.99,0.0
2019-10-05 12:20,50.630435,-96.98076,14.9,18.5,134,983.70,6.6,91,9.18,0.0,1010.76,0.0
2019-10-05 12:30,50.630435,-96.98076,14.1,18.9,128,983.60,6.8,94,9.18,0.0,1010.65,0.0
2019-10-05 12:40,50.630435,-96.98076,15.3,20.6,130,983.54,6.7,95,9.17,0.0,1010.60,0.0
2019-10-05 12:50,50.630435,-96.9807583333333,16.3,21.6,129,983.44,6.7,96,9.15,0.0,1010.49,0.0
2019-10-05 13:00,50.6304333333333,-96.9807566666667,17.1,22.5,130,983.29,6.4,99,9.13,0.0,1010.36,142.0
2019-10-05 13:10,50.6304316666667,-96.98076,16.0,21.6,127,983.04,6.6,99,9.12,0.0,1010.09,142.0
2019-10-05 13:20,50.6304316666667,-96.9807616666667,16.7,21.4,131,982.76,6.4,99,9.12,0.0,1009.81,142.0
2019-10-05 13:30,50.6304283333333,-96.980765,16.2,20.9,125,982.53,6.7,99,9.12,0.0,1009.58,142.0
2019-10-05 13:40,50.6304366666667,-96.9807633333333,15.8,20.5,126,982.23,6.6,99,9.11,0.0,1009.27,142.0
2019-10-05 13:50,50.630435,-96.98077,15.4,20.5,127,981.94,6.6,99,9.12,0.0,1008.97,142.0
2019-10-05 14:00,50.6304366666667,-96.98077,16.2,20.8,124,981.65,6.8,99,9.11,0.0,1008.66,192.6
2019-10-05 14:10,50.6304383333333,-96.98077,15.7,20.5,126,981.50,6.8,99,9.12,0.0,1008.51,192.6
2019-10-05 14:20,50.6304383333333,-96.9807683333333,15.3,19.3,126,981.30,6.8,99,9.12,0.0,1008.29,192.6
2019-10-05 14:30,50.63044,-96.98077,16.3,20.3,129,981.05,6.6,99,9.12,0.0,1008.05,192.6
2019-10-05 14:40,50.63044,-96.98077,16.5,21.5,130,980.86,6.6,99,9.12,0.0,1007.85,192.6
2019-10-05 14:50,50.6304383333333,-96.9807716666667,15.6,20.2,129,980.78,6.8,99,9.12,0.0,1007.79,192.6
2019-10-05 15:00,50.6304316666667,-96.980745,14.0,18.6,125,980.62,7.0,99,9.12,0.0,1007.60,119.2
2019-10-05 15:10,50.630435,-96.98076,14.4,17.9,120,980.42,7.3,99,9.12,0.0,1007.39,119.2
2019-10-05 15:20,50.6304383333333,-96.9807566666667,13.6,17.6,123,980.20,7.1,99,9.12,0.0,1007.15,119.2
2019-10-05 15:30,50.6304383333333,-96.9807516666667,12.1,15.3,126,979.96,7.0,99,9.11,0.0,1006.93,119.2
2019-10-05 15:40,50.630435,-96.9807533333333,10.5,14.9,128,979.75,6.9,99,9.11,0.0,1006.71,119.2
2019-10-05 15:50,50.630435,-96.9807583333333,11.6,14.5,133,979.51,6.7,99,9.11,0.0,1006.47,119.2
2019-10-05 16:00,50.6304333333333,-96.980775,12.2,17.2,131,979.29,6.9,99,9.12,0.0,1006.22,270.0
2019-10-05 16:10,50.6304266666667,-96.9807716666667,13.6,17.1,121,979.02,7.4,99,9.12,0.0,1005.93,270.0
2019-10-05 16:20,50.63042,-96.9807766666667,14.2,17.9,121,978.86,7.4,99,9.10,0.0,1005.77,270.0
2019-10-05 16:30,50.6304166666667,-96.9807733333333,13.2,17.2,127,978.86,7.1,99,9.08,0.0,1005.79,270.0
2019-10-05 16:40,50.6304233333333,-96.9807666666667,12.1,16.9,131,978.81,6.9,99,9.08,0.0,1005.74,270.0
2019-10-05 16:50,50.6304433333333,-96.98078,11.4,15.0,126,978.62,7.2,99,9.09,0.0,1005.51,270.0
2019-10-05 17:00,50.630435,-96.9807733333333,10.9,14.9,127,978.38,7.2,99,9.11,0.0,1005.25,270.0
2019-10-05 17:10,50.6304316666667,-96.980775,9.9,12.1,128,978.19,7.1,99,9.12,0.0,1005.07,270.0
2019-10-05 17:20,50.63043,-96.980775,10.0,13.4,128,978.01,7.1,99,9.13,0.0,1004.89,270.0
2019-10-05 17:30,50.6304316666667,-96.980775,9.8,12.8,128,977.80,7.2,99,9.14,0.0,1004.67,270.0
2019-10-05 17:40,50.63043,-96.9807733333333,9.2,11.7,128,977.60,7.2,99,9.16,0.0,1004.48,270.0
2019-10-05 17:50,50.6304283333333,-96.9807716666667,9.2,11.5,133,977.41,7.1,99,9.17,0.0,1004.28,270.0
2019-10-05 18:00,50.6304283333333,-96.9807716666667,8.5,11.0,131,977.19,7.2,99,9.16,0.0,1004.03,252.3
2019-10-05 18:10,50.6304283333333,-96.9807716666667,8.0,10.5,137,977.04,7.0,99,9.16,0.0,1003.88,252.3
2019-10-05 18:20,50.63043,-96.9807716666667,8.3,9.9,141,976.83,7.0,99,9.15,0.0,1003.68,252.3
2019-10-05 18:30,50.6304283333333,-96.98077,7.7,9.3,141,976.59,6.9,99,9.16,0.0,1003.45,252.3
2019-10-05 18:40,50.63041,-96.9807516666667,7.1,8.9,138,976.26,6.9,99,9.17,0.0,1003.09,252.3
2019-10-05 18:50,50.6304083333333,-96.9807583333333,6.1,7.2,140,975.96,6.9,99,9.17,0.0,1002.79,252.3
2019-10-05 19:00,50.6304083333333,-96.9807633333333,5.3,6.4,145,975.68,6.9,99,9.15,0.0,1002.50,360.0
2019-10-05 19:10,50.630395,-96.980755,5.7,6.5,139,975.45,7.0,99,9.15,0.0,1002.26,360.0
2019-10-05 19:20,50.6304083333333,-96.980775,4.8,6.1,145,975.31,7.0,99,9.16,0.0,1002.11,360.0
2019-10-05 19:30,50.6303983333333,-96.980765,4.6,6.0,145,975.15,7.1,99,9.18,0.0,1001.94,360.0
2019-10-05 19:40,50.6303966666667,-96.980765,4.2,5.4,146,974.97,7.0,99,9.19,0.0,1001.77,360.0
2019-10-05 19:50,50.6304,-96.9807683333333,3.6,4.3,141,974.74,7.0,99,9.20,0.0,1001.53,360.0
2019-10-05 20:00,50.6304016666667,-96.9807666666667,2.0,3.2,142,974.57,7.0,99,9.22,0.0,1001.37,159.8
2019-10-05 20:10,50.6304066666667,-96.9807666666667,2.9,9.0,219,974.45,7.2,99,9.23,0.0,1001.22,159.8
2019-10-05 20:20,50.6304283333333,-96.9807516666667,7.8,11.7,289,974.29,7.0,99,9.24,0.0,1001.07,159.8
2019-10-05 20:30,50.630425,-96.9807533333333,8.0,12.8,289,974.19,6.7,99,9.26,0.0,1001.00,159.8
2019-10-05 20:40,50.6304283333333,-96.9807583333333,8.2,12.1,286,974.03,6.5,99,9.27,0.0,1000.84,159.8
2019-10-05 20:50,50.6304283333333,-96.98076,7.1,11.6,291,973.83,6.6,99,9.26,0.0,1000.63,159.8
2019-10-05 21:00,50.63043,-96.9807633333333,7.1,11.5,300,973.61,6.7,99,9.25,0.0,1000.39,90.0
2019-10-05 21:10,50.6304283333333,-96.9807616666667,8.8,14.0,291,973.45,6.6,98,9.24,0.0,1000.23,90.0
2019-10-05 21:20,50.6304283333333,-96.9807633333333,7.4,11.8,296,973.47,6.8,95,9.25,0.0,1000.24,90.0
2019-10-05 21:30,50.6304316666667,-96.980765,5.8,11.2,292,973.56,6.9,95,9.25,0.0,1000.32,90.0
2019-10-05 21:40,50.63043,-96.9807633333333,6.8,11.2,285,973.59,6.9,92,9.25,0.0,1000.36,90.0
2019-10-05 21:50,50.63043,-96.9807633333333,6.5,10.5,277,973.64,6.9,90,9.25,0.0,1000.42,90.0
2019-10-05 22:00,50.6304283333333,-96.9807633333333,7.0,11.3,282,973.67,6.8,89,9.25,0.0,1000.43,18.9
2019-10-05 22:10,50.63043,-96.9807633333333,7.1,13.4,277,973.71,6.8,89,9.27,0.0,1000.49,18.9
2019-10-05 22:20,50.63043,-96.9807633333333,6.5,10.5,290,973.78,6.7,90,9.26,0.0,1000.58,18.9
2019-10-05 22:30,50.63043,-96.9807633333333,7.4,10.4,287,973.77,6.6,88,9.23,0.0,1000.59,18.9
2019-10-05 22:40,50.63043,-96.980765,5.4,9.5,276,973.84,6.5,89,9.22,0.0,1000.65,18.9
2019-10-05 22:50,50.63045,-96.9807633333333,6.5,11.5,285,973.85,6.4,88,9.22,0.0,1000.67,18.9
2019-10-05 23:00,50.6304166666667,-96.9807683333333,6.4,10.0,280,973.91,6.1,90,9.22,0.0,1000.75,38.0
2019-10-05 23:10,50.6304466666667,-96.9807533333333,6.8,11.0,273,973.86,6.0,88,9.21,0.0,1000.69,38.0
2019-10-05 23:20,50.6304333333333,-96.9807566666667,7.6,11.2,270,973.80,5.9,88,9.20,0.0,1000.63,38.0
2019-10-05 23:30,50.6303966666667,-96.980765,7.6,11.1,266,973.88,5.8,90,9.19,0.0,1000.72,38.0
2019-10-05 23:40,50.63044,-96.9807633333333,8.4,13.0,270,973.80,5.6,91,9.18,0.0,1000.65,38.0
2019-10-05 23:50,50.6304333333333,-96.9807566666667,7.4,13.3,268,973.78,5.4,92,9.17,0.0,1000.63,38.0
